Weather History for Sand Point, AK

Change the Weather History Date:

Sunday, February 9, 2014

  Actual Average Record
Temperature  
Mean Temperature 34 °F -  
Max Temperature 41 °F 33 °F 56 °F (1982)
Min Temperature 26 °F 27 °F 9 °F (1984)
Degree Days  
Heating Degree Days 32    
Moisture  
Dew Point 28 °F    
Average Humidity 80    
Maximum Humidity 93    
Minimum Humidity 52    
Precipitation  
Precipitation 0.00 in - - ()
Sea Level Pressure  
Sea Level Pressure 29.91 in    
Wind  
Wind Speed 12 mph (North)    
Max Wind Speed 23 mph    
Max Gust Speed 29 mph    
Visibility 10 miles    
Events      
Averages and records for this station are not official NWS values.
T = Trace of Precipitation, MM = Missing Value Source: NWS Daily Summary

Daily Weather History Graph

Daily Weather History Graph

Search for Another Location

Airport:

Trip Planner

Search our weather history database for the weather conditions in past years. The results will help you decide how hot, cold, wet, or windy it might be!

Date:

Astronomy

Feb. 09, 2014 Rise Set
Actual Time 9:17 AM AKST 6:35 PM AKST
Civil Twilight 8:38 AM AKST 7:14 PM AKST
Nautical Twilight 7:55 AM AKST 7:57 PM AKST
Astronomical Twilight 7:13 AM AKST 8:40 PM AKST
Moon 2:06 PM AKST (2/9) 5:51 AM AKST (2/9)
Length of Visible Light 10h 35m
Length of Day
9h 18m
Waxing Gibbous, 78% of the Moon is Illuminated
Feb 9
Waxing Gibbous
Feb 14
Full
Feb 22
Last Quarter
Feb 28
New
Mar 8
First Quarter

Hourly Weather History & Observations

Time (AKST) Temp. Windchill Dew Point Humidity Pressure Visibility Wind Dir Wind Speed Gust Speed Precip Events Conditions
12:16 AM 41.0 °F 34.7 °F 37.4 °F 87% 30.04 in 10.0 mi NE 10.4 mph 19.6 mph N/A   Overcast
12:36 AM 41.0 °F 34.3 °F 37.4 °F 87% 30.04 in 10.0 mi NE 11.5 mph 20.7 mph N/A   Overcast
12:56 AM 41.0 °F 34.7 °F 37.4 °F 87% 30.04 in 10.0 mi NE 10.4 mph 17.3 mph N/A   Overcast
1:16 AM 41.0 °F 34.7 °F 37.4 °F 87% 30.04 in 10.0 mi NE 10.4 mph 17.3 mph N/A   Overcast
1:36 AM 39.2 °F 33.0 °F 37.4 °F 93% 30.04 in 10.0 mi NNE 9.2 mph 17.3 mph N/A   Overcast
1:56 AM 39.2 °F 32.5 °F 37.4 °F 93% 30.05 in 10.0 mi NNE 10.4 mph - N/A   Overcast
2:16 AM 39.2 °F 33.6 °F 37.4 °F 93% 30.05 in 10.0 mi NE 8.1 mph - N/A   Overcast
2:36 AM 39.2 °F 34.2 °F 35.6 °F 87% 30.04 in 10.0 mi NE 6.9 mph - N/A   Overcast
2:56 AM 39.2 °F 35.0 °F 35.6 °F 87% 30.04 in 10.0 mi NE 5.8 mph - N/A   Overcast
3:16 AM 39.2 °F 33.6 °F 35.6 °F 87% 30.04 in 10.0 mi NNE 8.1 mph - N/A   Mostly Cloudy
3:36 AM 39.2 °F 34.2 °F 35.6 °F 87% 30.04 in 10.0 mi NE 6.9 mph - N/A   Overcast
3:56 AM 39.2 °F 34.2 °F 35.6 °F 87% 30.03 in 10.0 mi NE 6.9 mph - N/A   Overcast
4:16 AM 39.2 °F 33.6 °F 35.6 °F 87% 30.03 in 10.0 mi NE 8.1 mph - N/A   Overcast
4:36 AM 39.2 °F 35.9 °F 35.6 °F 87% 30.02 in 10.0 mi NE 4.6 mph - N/A   Mostly Cloudy
4:56 AM 39.2 °F 35.0 °F 35.6 °F 87% 30.02 in 10.0 mi NNE 5.8 mph - N/A   Partly Cloudy
5:16 AM 39.2 °F 33.6 °F 35.6 °F 87% 30.01 in 10.0 mi NE 8.1 mph - N/A   Clear
5:36 AM 37.4 °F 34.9 °F 35.6 °F 93% 30.00 in 10.0 mi NE 3.5 mph - N/A   Mostly Cloudy
5:56 AM 39.2 °F - 35.6 °F 87% 29.99 in 10.0 mi Calm Calm - N/A   Overcast
6:16 AM 37.4 °F - 35.6 °F 93% 29.99 in 10.0 mi Calm Calm - N/A   Overcast
6:36 AM 37.4 °F - 35.6 °F 93% 29.98 in 10.0 mi Calm Calm - N/A   Overcast
6:56 AM 37.4 °F - 35.6 °F 93% 29.97 in 10.0 mi Calm Calm - N/A   Mostly Cloudy
7:16 AM 39.2 °F 33.6 °F 35.6 °F 87% 29.96 in 10.0 mi NNW 8.1 mph - N/A   Mostly Cloudy
7:36 AM 37.4 °F - 35.6 °F 93% 29.95 in 10.0 mi Calm Calm - N/A   Mostly Cloudy
7:56 AM 37.4 °F 33.8 °F 35.6 °F 93% 29.95 in 10.0 mi North 4.6 mph - N/A   Mostly Cloudy
8:16 AM 37.4 °F 29.8 °F 35.6 °F 93% 29.94 in 10.0 mi North 11.5 mph - N/A   Mostly Cloudy
8:36 AM 37.4 °F 28.9 °F 33.8 °F 87% 29.93 in 10.0 mi NNW 13.8 mph - N/A   Mostly Cloudy
8:56 AM 35.6 °F 27.1 °F 33.8 °F 93% 29.93 in 10.0 mi NNW 12.7 mph - N/A   Mostly Cloudy
9:16 AM 35.6 °F 26.6 °F 33.8 °F 93% 29.93 in 10.0 mi North 13.8 mph - N/A   Mostly Cloudy
9:36 AM 35.6 °F 27.1 °F 33.8 °F 93% 29.93 in 10.0 mi North 12.7 mph - N/A   Mostly Cloudy
9:56 AM 35.6 °F 26.2 °F 33.8 °F 93% 29.92 in 10.0 mi North 15.0 mph - N/A   Scattered Clouds
10:16 AM 35.6 °F 26.6 °F 33.8 °F 93% 29.92 in 10.0 mi North 13.8 mph 21.9 mph N/A   Scattered Clouds
10:36 AM 35.6 °F 26.2 °F 32.0 °F 87% 29.92 in 10.0 mi NNW 15.0 mph - N/A   Scattered Clouds
10:56 AM 35.6 °F 26.2 °F 32.0 °F 87% 29.91 in 10.0 mi North 15.0 mph - N/A   Scattered Clouds
11:16 AM 35.6 °F 25.2 °F 30.2 °F 81% 29.91 in 10.0 mi North 18.4 mph - N/A   Scattered Clouds
11:36 AM 35.6 °F 25.9 °F 28.4 °F 75% 29.90 in 10.0 mi NNW 16.1 mph - N/A   Scattered Clouds
11:56 AM 33.8 °F 21.6 °F 28.4 °F 81% 29.90 in 10.0 mi NNW 23.0 mph - N/A   Scattered Clouds
12:16 PM 33.8 °F 21.9 °F 24.8 °F 70% 29.90 in 10.0 mi North 21.9 mph - N/A   Scattered Clouds
12:36 PM 32.0 °F 19.2 °F 24.8 °F 75% 29.89 in 10.0 mi NNW 23.0 mph 28.8 mph N/A   Scattered Clouds
12:56 PM 30.2 °F 17.1 °F 24.8 °F 80% 29.89 in 10.0 mi NNW 21.9 mph - N/A   Scattered Clouds
1:16 PM 30.2 °F 18.5 °F 23.0 °F 75% 29.88 in 10.0 mi NNW 17.3 mph - N/A   Scattered Clouds
1:36 PM 30.2 °F 18.1 °F 21.2 °F 69% 29.87 in 10.0 mi NNW 18.4 mph - N/A   Scattered Clouds
1:56 PM 33.8 °F 23.5 °F 19.4 °F 56% 29.86 in 10.0 mi North 16.1 mph - N/A   Partly Cloudy
2:16 PM 33.8 °F 25.3 °F 19.4 °F 56% 29.86 in 10.0 mi North 11.5 mph - N/A   Partly Cloudy
2:36 PM 33.8 °F 27.0 °F 17.6 °F 52% 29.85 in 10.0 mi North 8.1 mph - N/A   Partly Cloudy
2:56 PM 33.8 °F 25.3 °F 19.4 °F 56% 29.84 in 10.0 mi North 11.5 mph - N/A   Partly Cloudy
3:16 PM 33.8 °F 24.3 °F 17.6 °F 52% 29.84 in 10.0 mi NNE 13.8 mph 19.6 mph N/A   Partly Cloudy
3:36 PM 33.8 °F 25.3 °F 17.6 °F 52% 29.84 in 10.0 mi NNE 11.5 mph 19.6 mph N/A   Partly Cloudy
3:56 PM 33.8 °F 24.8 °F 19.4 °F 56% 29.83 in 10.0 mi North 12.7 mph 19.6 mph N/A   Mostly Cloudy
4:16 PM 32.0 °F 20.5 °F 19.4 °F 60% 29.84 in 10.0 mi North 18.4 mph - N/A   Mostly Cloudy
4:36 PM 30.2 °F 17.8 °F 21.2 °F 69% 29.83 in 10.0 mi North 19.6 mph - N/A   Mostly Cloudy
4:56 PM 30.2 °F 17.4 °F 21.2 °F 69% 29.84 in 10.0 mi North 20.7 mph 26.5 mph N/A   Mostly Cloudy
5:16 PM 30.2 °F 18.5 °F 21.2 °F 69% 29.83 in 10.0 mi North 17.3 mph 26.5 mph N/A   Mostly Cloudy
5:36 PM 28.4 °F 14.7 °F 21.2 °F 74% 29.82 in 10.0 mi North 21.9 mph 28.8 mph N/A   Mostly Cloudy
5:56 PM 28.4 °F 15.8 °F 21.2 °F 74% 29.83 in 10.0 mi North 18.4 mph 25.3 mph N/A   Overcast
6:16 PM 28.4 °F 15.8 °F 21.2 °F 74% 29.83 in 10.0 mi North 18.4 mph - N/A   Overcast
6:36 PM 28.4 °F 15.1 °F 21.2 °F 74% 29.83 in 10.0 mi North 20.7 mph - N/A   Overcast
6:56 PM 28.4 °F 15.8 °F 21.2 °F 74% 29.83 in 10.0 mi North 18.4 mph - N/A   Overcast
7:16 PM 28.4 °F 15.4 °F 21.2 °F 74% 29.83 in 10.0 mi North 19.6 mph 25.3 mph N/A   Overcast
7:36 PM 26.6 °F 13.1 °F 21.2 °F 80% 29.83 in 10.0 mi North 19.6 mph 25.3 mph N/A   Overcast
7:56 PM 26.6 °F 13.4 °F 21.2 °F 80% 29.83 in 10.0 mi North 18.4 mph - N/A   Overcast
8:16 PM 26.6 °F 13.4 °F 21.2 °F 80% 29.82 in 10.0 mi North 18.4 mph - N/A   Overcast
8:36 PM 26.6 °F 13.4 °F 21.2 °F 80% 29.83 in 10.0 mi NNW 18.4 mph - N/A   Overcast
8:56 PM 26.6 °F 14.3 °F 21.2 °F 80% 29.83 in 10.0 mi NNW 16.1 mph 21.9 mph N/A   Overcast
9:16 PM 28.4 °F 16.2 °F 21.2 °F 74% 29.82 in 10.0 mi North 17.3 mph - N/A   Overcast
9:36 PM 28.4 °F 16.2 °F 21.2 °F 74% 29.83 in 10.0 mi North 17.3 mph - N/A   Overcast
9:56 PM 28.4 °F 16.2 °F 21.2 °F 74% 29.83 in 10.0 mi NNW 17.3 mph - N/A   Overcast
10:16 PM 26.6 °F 13.4 °F 21.2 °F 80% 29.82 in 10.0 mi North 18.4 mph - N/A   Overcast
10:36 PM 26.6 °F 13.1 °F 23.0 °F 86% 29.82 in 10.0 mi North 19.6 mph - N/A   Overcast
10:56 PM 26.6 °F 13.1 °F 21.2 °F 80% 29.82 in 10.0 mi North 19.6 mph - N/A   Mostly Cloudy
11:16 PM 26.6 °F 13.1 °F 21.2 °F 80% 29.82 in 10.0 mi North 19.6 mph 24.2 mph N/A   Scattered Clouds
11:36 PM 26.6 °F 14.3 °F 21.2 °F 80% 29.82 in 10.0 mi North 16.1 mph - N/A   Clear
11:56 PM 26.6 °F 15.7 °F 23.0 °F 86% 29.82 in 10.0 mi North 12.7 mph - N/A   Mostly Cloudy